www.pogodaiklimat.ru

Погода и климат >> Архив погоды >> Кувейт >> Кувейт Сити


ПОГОДА в Кувейт Сити

  • Прогноз погоды в Кувейт Сити
  • Монитор погоды в Кувейт Сити

АРХИВ ПОГОДЫ в Кувейт Сити

Время (UTC), дата Ветер
(напр.,м/с)
 
Видим.   Явления Облачность Т
(С)
Тd
(С)
f
(%)
Тe
(С)
Тes
(С)
Комфортность P
(гПа)
Po
(гПа)
Тmin
(С)
Tmax
(С)
R
(мм)
R24
(мм)
S
(см)
06 9.06 Ю 1-5
{7}
н/о н/о +43.7 +5.2 10 +41 +41 опасность
перегрева
1004.1 1002.9
09 9.06 В 2-7
{8}
н/о н/о +43.0 +9.8 14 +41 +41 опасность
перегрева
1002.9 1001.7
12 9.06 Ю 2-5
{9}
н/о н/о +45.7 +7.0 10 +43 +43 опасность
перегрева
1001.3 1000.1
15 9.06 В 1-2
{6}
н/о н/о +43.2 +7.2 12 +41 +41 опасность
перегрева
1000.7 999.5
18 9.06 В 1-1
{6}
н/о н/о +39.5 +8.2 15 +37 +37 очень
жарко
1001.8 1000.6
21 9.06 В 2-6
{6}
н/о н/о +38.7 +15.4 25 +40 +40 очень
душно
1001.5 1000.3 +35.9 +47.1
00 10.06 В 1-4
{7}
н/о н/о +36.3 +11.9 23 +36 +36 очень
жарко
1001.0 999.8
03 10.06 СЗ 1-2
{5}
н/о н/о +38.6 +6.4 14 +36 +36 очень
жарко
1001.8 1000.6
06 10.06 СЗ 2-5
{5}
н/о н/о +40.9 +7.6 13 +38 +38 очень
жарко
1002.3 1001.1
09 10.06 СВ 3-6
{6}
н/о н/о +48.4 +2.6 6 +45 +45 опасность
перегрева
1001.6 1000.4
12 10.06 ЮВ 2-5
{8}
н/о н/о +46.9 +6.1 9 +44 +44 опасность
перегрева
1000.3 999.1
15 10.06 В 1-4
{6}
н/о н/о +43.6 +4.3 9 +40 +40 очень
жарко
999.8 998.6
18 10.06 СВ 2-3
{6}
н/о н/о +39.8 +4.7 12 +37 +37 очень
жарко
1001.1 999.9
21 10.06 С 1-4
{4}
н/о н/о +41.8 +1.0 8 +38 +38 очень
жарко
1000.7 999.5 +35.6 +48.9
00 11.06 С 3-6
{6}
н/о н/о +40.6 +4.5 11 +38 +38 очень
жарко
1000.4 999.2
03 11.06 СВ 1-4
{7}
н/о н/о +39.0 +6.9 14 +36 +36 очень
жарко
1002.1 1000.9
06 11.06 З 2-6
{8}
н/о н/о +42.5 +6.5 11 +40 +40 очень
жарко
1002.9 1001.7
09 11.06 СВ 4-7
{7}
н/о н/о +47.6 +5.8 8 +45 +45 опасность
перегрева
1002.0 1000.8
12 11.06 СВ 3-6
{8}
н/о н/о +47.7 +5.8 8 +45 +45 опасность
перегрева
1000.3 999.1
15 11.06 С 5-10
{10}
н/о н/о +42.3 +16.6 23 +44 +44 опасность
перегрева
1000.1 998.9
18 11.06 СЗ 2-7
{11}
н/о н/о +42.5 +8.2 13 +40 +40 очень
жарко
1001.6 1000.4
21 11.06 СЗ 3-9
{9}
н/о н/о +39.2 +13.3 22 +39 +39 очень
жарко
1001.5 1000.3 +37.5 +49.2
00 12.06 СВ 2-5
{10}
н/о н/о +36.4 +15.1 28 +38 +38 очень
душно
1001.2 1000.0
03 12.06 С 2-6
{7}
н/о н/о +35.5 +11.9 24 +35 +35 очень
жарко
1002.5 1001.3
06 12.06 С 3-7
{7}
н/о н/о +41.2 +9.3 15 +39 +39 очень
жарко
1003.4 1002.2
09 12.06 С 4-7
{10}
н/о н/о +44.5 +10.7 14 +43 +43 опасность
перегрева
1002.7 1001.5
12 12.06 С 6-11
{11}
н/о н/о +43.7 +9.4 13 +42 +42 опасность
перегрева
1001.4 1000.2
15 12.06 С 6-11
{11}
н/о н/о +40.5 +13.1 20 +40 +40 очень
жарко
1001.4 1000.2
18 12.06 С 3-6
{12}
н/о н/о +39.1 +7.4 15 +37 +37 очень
жарко
1003.3 1002.1
21 12.06 С 2-6
{9}
н/о н/о +36.4 +7.9 18 +35 +35 очень
жарко
1003.1 1001.9 +35.4 +46.0
00 13.06 З 2-5
{9}
н/о н/о +34.5 +8.2 20 +33 +33 жарко 1002.6 1001.4
03 13.06 СЗ 3-8
{8}
н/о н/о +34.1 +7.6 19 +32 +32 жарко 1003.4 1002.2
06 13.06 С 5-8
{11}
н/о н/о +38.7 +13.0 22 +39 +39 душно 1004.2 1003.0
09 13.06 С 7-10
{11}
н/о н/о +40.9 +10.7 17 +40 +40 очень
жарко
1003.1 1001.9
12 13.06 С 6-11
{12}
н/о н/о +43.2 +4.9 10 +40 +40 очень
жарко
1001.7 1000.5
15 13.06 С 5-8
{11}
н/о н/о +40.0 +12.7 20 +40 +40 очень
душно
1001.4 1000.2
18 13.06 С 4-6
{11}
н/о н/о +38.2 +6.1 14 +36 +36 очень
жарко
1002.7 1001.5
21 13.06 СЗ 3-7
{8}
н/о н/о +38.1 +5.7 14 +35 +35 очень
жарко
1001.8 1000.6 +33.4 +43.5
00 14.06 СЗ 2-7
{8}
н/о н/о +35.8 +4.5 14 +33 +33 жарко 1001.3 1000.1
03 14.06 СВ 2-4
{6}
н/о н/о +35.1 +10.5 22 +34 +34 очень
жарко
1001.7 1000.5
06 14.06 СВ 2-4
{7}
н/о н/о +41.0 +3.5 10 +38 +38 очень
жарко
1002.5 1001.3
09 14.06 СВ 3-7
{7}
н/о н/о +43.4 -0.2 7 +40 +40 очень
жарко
1002.1 1000.9
12 14.06 В 2-5
{7}
н/о н/о +44.2 -0.7 6 +40 +40 очень
жарко
1000.8 999.6
15 14.06 ЮВ 1-3
{6}
н/о н/о +42.1 +0.4 8 +38 +38 очень
жарко
1000.4 999.2
18 14.06 В 1-1
{6}
н/о н/о +38.8 +2.2 10 +35 +35 очень
жарко
1001.4 1000.2
21 14.06 ЮЗ 2-3
{3}
н/о н/о +38.1 +10.4 19 +37 +37 очень
жарко
1000.4 999.2 +34.3 +45.8
00 15.06 Ю 2-3
{4}
н/о н/о +36.4 +1.0 11 +33 +33 жарко 1000.3 999.1
03 15.06 ЮВ 1-1
{4}
н/о н/о +37.1 +4.4 13 +34 +34 очень
жарко
1000.8 999.6
06 15.06 СЗ 2-5
{5}
н/о н/о +40.6 +1.3 9 +37 +37 очень
жарко
1002.2 1001.0
09 15.06 СВ 3-4
{6}
н/о н/о +45.2 -2.3 5 +41 +41 опасность
перегрева
1001.5 1000.3
12 15.06 В 2-6
{7}
н/о н/о +45.0 +1.9 7 +41 +41 опасность
перегрева
1000.2 999.0
15 15.06 В 1-2
{5}
н/о н/о +43.1 +1.3 8 +40 +40 очень
жарко
999.8 998.6
18 15.06 Ю 2-6
{6}
н/о н/о +42.1 -1.3 7 +38 +38 очень
жарко
1000.8 999.6
21 15.06 Ю 2-3
{5}
н/о н/о +38.9 +0.9 9 +35 +35 очень
жарко
1000.7 999.5 +34.3 +46.5
00 16.06 ЮЗ 1-2
{5}
н/о н/о +37.7 +1.5 10 +34 +34 очень
жарко
1000.0 998.8

 

Местоположение метеостанции Кувейт Сити (Кувейт): широта 29.33 долгота 48.05 высота над уровнем моря 11 м.

В архиве по умолчанию представлена погода в Кувейт Сити за последнюю неделю. Архивные данные за месяц целиком и за предыдущие месяцы, начиная с января 2011 года, Вы можете получить, выбрав интересующий диапазон дат из раскрывающегося списка и нажав кнопку "Ввод!".


*Определитесь, кто Вы:
робот инопланетянин человек

Внимание! Время в таблицах - всемирное. Для получения местного времени необходимо прибавить поправку, которая равна 3 ч.

Смотрите также архив погоды в соседних городах и на ближайших метеорологических станциях:

Погода в Аль-Шуаиба (Кувейт) (5 км)
Погода на Экспериментальной ферме (Кувейт) (12 км)
Погода в Эль-Кувейте (Кувейт) (14 км)
Погода Остров Файлака (Кувейт) (27 км)
Погода в Сулайбии (Кувейт) (33 км)
Погода в Эль-Джахра (Кувейт) (37 км)
Погода на Метеостанции Sabriyah (Кувейт) (51 км)
Погода на Метеостанции Jal Aliyah (Кувейт) (55 км)
Погода в Порту Juluiah (Кувейт) (56 км)
Погода в Минагише (Кувейт) (58 км)

Пояснения к столбцам:

Ветер - указаны скорость ветра в м/с - средняя за 10 мин, порывы в срок и между сроками (в фигурных скобках) и направление, откуда дует ветер: С - северный, СВ - северо-восточный, В - восточный, ЮВ - юго-восточный, Ю - южный, ЮЗ - юго-западный, З - западный, СЗ - северо-западный.
Видимость - горизонтальная дальность видимости в метрах или километрах. При видимости от 1 до 10 км при отсутствии осадков обычно наблюдается дымка, при ухудшении видимости до 1 км и менее - туман. В сухую погоду видимость может ухудшаться дымом, пылью или мглою.
Явления - указаны атмосферные явления, наблюдавшиеся в срок или в последний час перед сроком; фигурными скобками обозначены явления, наблюдавшиеся между сроками (за 1-3 часа до срока); квадратными скобками обозначены град или гололедные отложения с указанием их диаметра в мм.
Облачность - указаны через наклонную черту общая и нижняя облачность в баллах и высота нижней границы облаков в метрах; квадратными скобками обозначены формы облаков: Ci - перистые, Cs - перисто-слоистые, Cc - перисто-кучевые, Ac - высококучевые, As - высокослоистые, Sc - слоисто-кучевые, Ns - слоисто-дождевые, Cu - кучевые, Cb - кучево-дождевые. Подробнее классификацию облаков см. в Атласе облаков (PDF).
T - Температура воздуха - температура, измеренная на высоте 2 м над землей.
Td - Температура точки росы - температура, при понижении до которой содержащийся в воздухе водяной пар достигнет насыщения.
f - Относительная влажность воздуха - влажноcть воздуха, измеренная на высоте 2 м над землей.
Te - Эффективная температура - температура, которую ощущает одетый по сезону человек в тени. Характеристика душности погоды. При расчете учитывается влияние влажности воздуха и скорости ветра на теплоощущения человека.
Tes - Эффективная температура на солнце - температура, которую ощущает человек, с поправкой на солнечный нагрев. Характеристика знойности погоды. Зависит от высоты солнца над горизонтом, облачности и скорости ветра. Ночью, в пасмурную погоду, а также при ветре 12 м/с и более поправка равна нулю.
P - Атмосферное давление - приведенное к уровню моря атмосферное давление.
Po - Атмосферное давление - измеренное на уровне метеостанции атмосферное давление.
Tmin - Минимальная температура - минимум температуры воздуха на высоте 2 м над землей.
Tmax - Максимальная температура - максимум температуры воздуха на высоте 2 м над землей.
R - Количество осадков - Количество выпавших осадков за период времени, мм. При наведении курсора мыши на число - период времени, за который выпало указанное количество осадков.
R24 - Количество осадков - Количество выпавших осадков за 24 часа, мм.
S - Снежный покров - Высота снежного покрова, см. При наведении курсора мыши на число - состояние снежного покрова и степень покрытия местности в баллах.